Wetterdaten: Montag, 05.01.2015
Datum Zeit Temperatur Luftfeuchte Luftdruck Regen Wind Richtung Richtung Taupunkt Windchill Windben
05.01.2015 00:00 -2,1 C 96 % 1032,7 hPa 0,0 l/m 0,0 km/h (0 Bft) W-SW 247 -2,6 C -2,8 C 0,0 km/h (0 Bft)
05.01.2015 00:05 -2,0 C 96 % 1032,7 hPa 0,0 l/m 0,0 km/h (0 Bft) W-SW 247 -2,6 C -2,8 C 0,0 km/h (0 Bft)
05.01.2015 00:10 -2,0 C 96 % 1032,7 hPa 0,0 l/m 0,0 km/h (0 Bft) W-SW 247 -2,6 C -2,8 C 0,0 km/h (0 Bft)
05.01.2015 00:15 -2,0 C 96 % 1032,7 hPa 0,0 l/m 0,0 km/h (0 Bft) W-SW 247 -2,6 C -2,8 C 0,0 km/h (0 Bft)
05.01.2015 00:20 -1,9 C 96 % 1032,7 hPa 0,0 l/m 0,0 km/h (0 Bft) W-SW 247 -2,5 C -2,8 C 0,0 km/h (0 Bft)
05.01.2015 00:25 -2,0 C 96 % 1032,7 hPa 0,0 l/m 0,0 km/h (0 Bft) W-SW 247 -2,6 C -2,8 C 0,0 km/h (0 Bft)
05.01.2015 00:30 -2,0 C 96 % 1032,7 hPa 0,0 l/m 0,0 km/h (0 Bft) W-SW 247 -2,6 C -2,8 C 0,0 km/h (0 Bft)
05.01.2015 00:35 -2,0 C 96 % 1032,7 hPa 0,0 l/m 0,0 km/h (0 Bft) W-SW 247 -2,6 C -2,8 C 0,0 km/h (0 Bft)
05.01.2015 00:40 -2,0 C 96 % 1032,7 hPa 0,0 l/m 0,0 km/h (0 Bft) W-SW 247 -2,6 C -2,8 C 0,0 km/h (0 Bft)
05.01.2015 00:45 -2,0 C 96 % 1032,7 hPa 0,0 l/m 0,0 km/h (0 Bft) W-SW 247 -2,6 C -2,8 C 0,0 km/h (0 Bft)
05.01.2015 00:50 -2,0 C 96 % 1032,7 hPa 0,0 l/m 0,0 km/h (0 Bft) W-SW 247 -2,6 C -2,8 C 0,0 km/h (0 Bft)
05.01.2015 00:55 -2,0 C 96 % 1032,7 hPa 0,0 l/m 0,0 km/h (0 Bft) W-SW 247 -2,6 C -2,8 C 0,0 km/h (0 Bft)
05.01.2015 01:00 -2,0 C 96 % 1032,6 hPa 0,0 l/m 0,0 km/h (0 Bft) W-SW 247 -2,6 C -2,8 C 0,0 km/h (0 Bft)
05.01.2015 01:05 -1,9 C 96 % 1032,6 hPa 0,0 l/m 0,0 km/h (0 Bft) W-SW 247 -2,5 C -2,8 C 0,0 km/h (0 Bft)
05.01.2015 01:10 -1,9 C 96 % 1032,6 hPa 0,0 l/m 0,0 km/h (0 Bft) W-SW 247 -2,5 C -2,8 C 0,0 km/h (0 Bft)
05.01.2015 01:15 -1,9 C 96 % 1032,6 hPa 0,0 l/m 0,0 km/h (0 Bft) W-SW 247 -2,5 C -2,8 C 0,0 km/h (0 Bft)
05.01.2015 01:20 -1,8 C 96 % 1032,6 hPa 0,0 l/m 0,0 km/h (0 Bft) W-SW 247 -2,4 C -2,8 C 0,0 km/h (0 Bft)
05.01.2015 01:25 -1,8 C 96 % 1032,6 hPa 0,0 l/m 0,0 km/h (0 Bft) W-SW 247 -2,4 C -2,8 C 0,0 km/h (0 Bft)
05.01.2015 01:28 -1,8 C 96 % 1032,6 hPa 0,0 l/m 0,0 km/h (0 Bft) W-SW 247 -2,4 C -2,8 C 0,0 km/h (0 Bft)
05.01.2015 01:30 -1,8 C 96 % 1032,6 hPa 0,0 l/m 0,0 km/h (0 Bft) W-SW 247 -2,4 C -2,8 C 0,0 km/h (0 Bft)
05.01.2015 01:35 -1,8 C 96 % 1032,6 hPa 0,0 l/m 0,0 km/h (0 Bft) W-SW 247 -2,4 C -2,8 C 0,0 km/h (0 Bft)
05.01.2015 01:40 -1,8 C 96 % 1032,7 hPa 0,0 l/m 0,0 km/h (0 Bft) W-SW 247 -2,4 C -2,8 C 0,0 km/h (0 Bft)
05.01.2015 01:45 -1,8 C 96 % 1032,7 hPa 0,0 l/m 0,0 km/h (0 Bft) W-SW 247 -2,4 C -2,8 C 0,0 km/h (0 Bft)
05.01.2015 01:50 -1,9 C 96 % 1032,7 hPa 0,0 l/m 0,0 km/h (0 Bft) W-SW 247 -2,5 C -2,8 C 0,0 km/h (0 Bft)
05.01.2015 01:55 -1,9 C 96 % 1032,7 hPa 0,0 l/m 0,0 km/h (0 Bft) W-SW 247 -2,5 C -2,8 C 0,0 km/h (0 Bft)
05.01.2015 02:00 -1,9 C 96 % 1032,6 hPa 0,0 l/m 0,0 km/h (0 Bft) W-SW 247 -2,5 C -2,8 C 0,0 km/h (0 Bft)
05.01.2015 02:05 -1,9 C 96 % 1032,6 hPa 0,0 l/m 0,0 km/h (0 Bft) W-SW 247 -2,5 C -2,8 C 0,0 km/h (0 Bft)
05.01.2015 02:10 -1,9 C 96 % 1032,6 hPa 0,0 l/m 0,0 km/h (0 Bft) W-SW 247 -2,5 C -2,8 C 0,0 km/h (0 Bft)
05.01.2015 02:15 -1,9 C 95 % 1032,6 hPa 0,0 l/m 0,0 km/h (0 Bft) W-SW 247 -2,6 C -2,8 C 0,0 km/h (0 Bft)
05.01.2015 02:20 -1,9 C 95 % 1033,0 hPa 0,0 l/m 0,0 km/h (0 Bft) W-SW 247 -2,6 C -2,8 C 0,0 km/h (0 Bft)
05.01.2015 02:25 -1,9 C 95 % 1033,0 hPa 0,0 l/m 0,0 km/h (0 Bft) W-SW 247 -2,6 C -2,8 C 0,0 km/h (0 Bft)
05.01.2015 02:30 -1,9 C 95 % 1033,0 hPa 0,0 l/m 0,0 km/h (0 Bft) W-SW 247 -2,6 C -2,8 C 0,0 km/h (0 Bft)
05.01.2015 02:35 -2,0 C 95 % 1033,0 hPa 0,0 l/m 0,0 km/h (0 Bft) W-SW 247 -2,7 C -2,8 C 0,0 km/h (0 Bft)
05.01.2015 02:40 -2,0 C 95 % 1032,9 hPa 0,0 l/m 0,0 km/h (0 Bft) W-SW 247 -2,7 C -2,8 C 0,0 km/h (0 Bft)
05.01.2015 02:45 -2,0 C 95 % 1032,9 hPa 0,0 l/m 0,0 km/h (0 Bft) W-SW 247 -2,7 C -2,8 C 0,0 km/h (0 Bft)
05.01.2015 02:50 -2,0 C 95 % 1032,9 hPa 0,0 l/m 0,0 km/h (0 Bft) W-SW 247 -2,7 C -2,8 C 0,0 km/h (0 Bft)
05.01.2015 02:55 -2,0 C 95 % 1032,9 hPa 0,0 l/m 0,0 km/h (0 Bft) W-SW 247 -2,7 C -2,8 C 0,0 km/h (0 Bft)
05.01.2015 03:00 -2,0 C 95 % 1033,1 hPa 0,0 l/m 0,0 km/h (0 Bft) W-SW 247 -2,7 C -2,8 C 0,0 km/h (0 Bft)
05.01.2015 03:05 -2,0 C 95 % 1033,1 hPa 0,0 l/m 0,0 km/h (0 Bft) W-SW 247 -2,7 C -2,8 C 0,0 km/h (0 Bft)
05.01.2015 03:10 -2,0 C 95 % 1033,1 hPa 0,0 l/m 0,0 km/h (0 Bft) W-SW 247 -2,7 C -2,8 C 0,0 km/h (0 Bft)
05.01.2015 03:15 -2,0 C 95 % 1033,1 hPa 0,0 l/m 0,0 km/h (0 Bft) W-SW 247 -2,7 C -2,8 C 0,0 km/h (0 Bft)
05.01.2015 03:20 -2,0 C 95 % 1032,9 hPa 0,0 l/m 0,0 km/h (0 Bft) W-SW 247 -2,7 C -2,8 C 0,0 km/h (0 Bft)
05.01.2015 03:25 -2,0 C 95 % 1032,9 hPa 0,0 l/m 0,0 km/h (0 Bft) W-SW 247 -2,7 C -2,8 C 0,0 km/h (0 Bft)
05.01.2015 03:30 -2,0 C 95 % 1032,9 hPa 0,0 l/m 0,0 km/h (0 Bft) W-SW 247 -2,7 C -2,8 C 0,0 km/h (0 Bft)
05.01.2015 03:35 -2,0 C 95 % 1032,9 hPa 0,0 l/m 0,0 km/h (0 Bft) W-SW 247 -2,7 C -2,8 C 0,0 km/h (0 Bft)
05.01.2015 03:40 -2,0 C 95 % 1032,8 hPa 0,0 l/m 0,0 km/h (0 Bft) W-SW 247 -2,7 C -2,8 C 0,0 km/h (0 Bft)
05.01.2015 03:45 -2,0 C 95 % 1032,8 hPa 0,0 l/m 0,0 km/h (0 Bft) W-SW 247 -2,7 C -2,8 C 0,0 km/h (0 Bft)
05.01.2015 03:50 -2,1 C 95 % 1032,8 hPa 0,0 l/m 0,0 km/h (0 Bft) W-SW 247 -2,8 C -2,8 C 0,0 km/h (0 Bft)
05.01.2015 03:55 -2,1 C 95 % 1032,8 hPa 0,0 l/m 0,0 km/h (0 Bft) W-SW 247 -2,8 C -2,8 C 0,0 km/h (0 Bft)
05.01.2015 04:00 -2,1 C 95 % 1032,7 hPa 0,0 l/m 0,0 km/h (0 Bft) W-SW 247 -2,8 C -2,8 C 0,0 km/h (0 Bft)
05.01.2015 04:05 -2,2 C 95 % 1032,7 hPa 0,0 l/m 0,0 km/h (0 Bft) W-SW 247 -2,9 C -2,8 C 0,0 km/h (0 Bft)
05.01.2015 04:10 -2,3 C 95 % 1032,7 hPa 0,0 l/m 0,0 km/h (0 Bft) W-SW 247 -3,0 C -2,8 C 0,0 km/h (0 Bft)
05.01.2015 04:15 -2,3 C 95 % 1032,7 hPa 0,0 l/m 0,0 km/h (0 Bft) W-SW 247 -3,0 C -2,8 C 0,0 km/h (0 Bft)
05.01.2015 04:20 -2,3 C 95 % 1032,6 hPa 0,0 l/m 0,0 km/h (0 Bft) W-SW 247 -3,0 C -2,8 C 0,0 km/h (0 Bft)
05.01.2015 04:25 -2,3 C 95 % 1032,6 hPa 0,0 l/m 0,0 km/h (0 Bft) W-SW 247 -3,0 C -2,8 C 0,0 km/h (0 Bft)
05.01.2015 04:28 -2,2 C 95 % 1032,6 hPa 0,0 l/m 0,0 km/h (0 Bft) W-SW 247 -2,9 C -2,8 C 0,0 km/h (0 Bft)
05.01.2015 04:30 -2,2 C 95 % 1032,6 hPa 0,0 l/m 0,0 km/h (0 Bft) W-SW 247 -2,9 C -2,8 C 0,0 km/h (0 Bft)
05.01.2015 04:35 -2,2 C 95 % 1032,6 hPa 0,0 l/m 0,0 km/h (0 Bft) W-SW 247 -2,9 C -2,8 C 0,0 km/h (0 Bft)
05.01.2015 04:40 -2,1 C 95 % 1032,7 hPa 0,0 l/m 0,0 km/h (0 Bft) W-SW 247 -2,8 C -2,8 C 0,0 km/h (0 Bft)
05.01.2015 04:45 -2,0 C 95 % 1032,7 hPa 0,0 l/m 0,0 km/h (0 Bft) W-SW 247 -2,7 C -2,8 C 0,0 km/h (0 Bft)
05.01.2015 04:50 -2,0 C 95 % 1032,7 hPa 0,0 l/m 0,0 km/h (0 Bft) W-SW 247 -2,7 C -2,8 C 0,0 km/h (0 Bft)
05.01.2015 04:55 -2,1 C 95 % 1032,7 hPa 0,0 l/m 0,0 km/h (0 Bft) W-SW 247 -2,8 C -2,8 C 0,0 km/h (0 Bft)
05.01.2015 05:00 -2,2 C 95 % 1032,6 hPa 0,0 l/m 0,0 km/h (0 Bft) W-SW 247 -2,9 C -2,8 C 0,0 km/h (0 Bft)
05.01.2015 05:05 -2,2 C 95 % 1032,6 hPa 0,0 l/m 0,0 km/h (0 Bft) W-SW 247 -2,9 C -2,8 C 0,0 km/h (0 Bft)
05.01.2015 05:10 -2,4 C 95 % 1032,6 hPa 0,0 l/m 0,0 km/h (0 Bft) W-SW 247 -3,1 C -2,8 C 0,0 km/h (0 Bft)
05.01.2015 05:15 -2,6 C 95 % 1032,6 hPa 0,0 l/m 0,0 km/h (0 Bft) W-SW 247 -3,3 C -2,8 C 0,0 km/h (0 Bft)
05.01.2015 05:20 -2,6 C 95 % 1032,6 hPa 0,0 l/m 0,0 km/h (0 Bft) W-SW 247 -3,3 C -2,8 C 0,0 km/h (0 Bft)
05.01.2015 05:25 -2,7 C 95 % 1032,6 hPa 0,0 l/m 0,0 km/h (0 Bft) W-SW 247 -3,4 C -2,8 C 0,0 km/h (0 Bft)
05.01.2015 05:30 -2,8 C 94 % 1032,6 hPa 0,0 l/m 0,0 km/h (0 Bft) W-SW 247 -3,6 C -2,8 C 0,0 km/h (0 Bft)
05.01.2015 05:35 -2,9 C 94 % 1032,6 hPa 0,0 l/m 0,0 km/h (0 Bft) W-SW 247 -3,7 C -2,8 C 0,0 km/h (0 Bft)
05.01.2015 05:40 -2,9 C 94 % 1032,2 hPa 0,0 l/m 0,0 km/h (0 Bft) W-SW 247 -3,7 C -2,8 C 0,0 km/h (0 Bft)
05.01.2015 05:45 -2,9 C 94 % 1032,2 hPa 0,0 l/m 0,0 km/h (0 Bft) W-SW 247 -3,7 C -2,8 C 0,0 km/h (0 Bft)
05.01.2015 05:50 -2,8 C 94 % 1032,2 hPa 0,0 l/m 0,0 km/h (0 Bft) W-SW 247 -3,6 C -2,8 C 0,0 km/h (0 Bft)
05.01.2015 05:55 -2,9 C 94 % 1032,2 hPa 0,0 l/m 0,0 km/h (0 Bft) W-SW 247 -3,7 C -2,8 C 0,0 km/h (0 Bft)
05.01.2015 06:00 -3,4 C 94 % 1032,1 hPa 0,0 l/m 0,0 km/h (0 Bft) W-SW 247 -4,2 C -2,8 C 0,0 km/h (0 Bft)
05.01.2015 06:05 -3,8 C 94 % 1032,1 hPa 0,0 l/m 0,0 km/h (0 Bft) W-SW 247 -4,6 C -2,8 C 0,0 km/h (0 Bft)
05.01.2015 06:10 -4,0 C 94 % 1032,1 hPa 0,0 l/m 0,0 km/h (0 Bft) W-SW 247 -4,8 C -2,8 C 0,0 km/h (0 Bft)
05.01.2015 06:15 -4,0 C 94 % 1032,1 hPa 0,0 l/m 0,0 km/h (0 Bft) W-SW 247 -4,8 C -2,8 C 0,0 km/h (0 Bft)
05.01.2015 06:20 -4,3 C 93 % 1031,8 hPa 0,0 l/m 0,0 km/h (0 Bft) W-SW 247 -5,3 C -2,8 C 0,0 km/h (0 Bft)
05.01.2015 06:25 -4,4 C 93 % 1031,8 hPa 0,0 l/m 0,0 km/h (0 Bft) W-SW 247 -5,4 C -2,8 C 0,0 km/h (0 Bft)
05.01.2015 06:30 -4,7 C 93 % 1031,8 hPa 0,0 l/m 0,0 km/h (0 Bft) W-SW 247 -5,7 C -2,8 C 0,0 km/h (0 Bft)
05.01.2015 06:35 -4,8 C 93 % 1031,8 hPa 0,0 l/m 0,0 km/h (0 Bft) W-SW 247 -5,8 C -2,8 C 0,0 km/h (0 Bft)
05.01.2015 06:40 -5,1 C 93 % 1031,5 hPa 0,0 l/m 0,0 km/h (0 Bft) W-SW 247 -6,1 C -2,8 C 0,0 km/h (0 Bft)
05.01.2015 06:45 -4,6 C 93 % 1031,5 hPa 0,0 l/m 0,0 km/h (0 Bft) W-SW 247 -5,6 C -2,8 C 0,0 km/h (0 Bft)
05.01.2015 06:50 -4,4 C 93 % 1031,5 hPa 0,0 l/m 0,0 km/h (0 Bft) W-SW 247 -5,4 C -2,8 C 0,0 km/h (0 Bft)
05.01.2015 06:55 -4,4 C 93 % 1031,5 hPa 0,0 l/m 0,0 km/h (0 Bft) W-SW 247 -5,4 C -2,8 C 0,0 km/h (0 Bft)
05.01.2015 07:00 -4,5 C 93 % 1031,4 hPa 0,0 l/m 0,0 km/h (0 Bft) W-SW 247 -5,5 C -2,8 C 0,0 km/h (0 Bft)
05.01.2015 07:05 -4,7 C 92 % 1031,4 hPa 0,0 l/m 0,0 km/h (0 Bft) W-SW 247 -5,8 C -2,8 C 0,0 km/h (0 Bft)
05.01.2015 07:10 -4,7 C 92 % 1031,4 hPa 0,0 l/m 0,0 km/h (0 Bft) W-SW 247 -5,8 C -2,8 C 0,0 km/h (0 Bft)
05.01.2015 07:15 -4,8 C 92 % 1031,4 hPa 0,0 l/m 0,0 km/h (0 Bft) W-SW 247 -5,9 C -2,8 C 0,0 km/h (0 Bft)
05.01.2015 07:20 -5,0 C 92 % 1031,2 hPa 0,0 l/m 0,0 km/h (0 Bft) W-SW 247 -6,1 C -2,8 C 0,0 km/h (0 Bft)
05.01.2015 07:25 -5,3 C 92 % 1031,2 hPa 0,0 l/m 0,0 km/h (0 Bft) W-SW 247 -6,4 C -2,8 C 0,0 km/h (0 Bft)
05.01.2015 07:30 -5,5 C 92 % 1031,2 hPa 0,0 l/m 0,0 km/h (0 Bft) W-SW 247 -6,6 C -2,8 C 0,0 km/h (0 Bft)
05.01.2015 07:35 -5,3 C 92 % 1031,2 hPa 0,0 l/m 0,0 km/h (0 Bft) W-SW 247 -6,4 C -2,8 C 0,0 km/h (0 Bft)
05.01.2015 07:40 -5,5 C 91 % 1031,4 hPa 0,0 l/m 0,0 km/h (0 Bft) W-SW 247 -6,7 C -2,8 C 0,0 km/h (0 Bft)
05.01.2015 07:45 -5,6 C 91 % 1031,4 hPa 0,0 l/m 0,0 km/h (0 Bft) W-SW 247 -6,8 C -2,8 C 0,0 km/h (0 Bft)
05.01.2015 07:50 -5,5 C 91 % 1031,4 hPa 0,0 l/m 0,0 km/h (0 Bft) W-SW 247 -6,7 C -2,8 C 0,0 km/h (0 Bft)
05.01.2015 07:55 -5,4 C 91 % 1031,4 hPa 0,0 l/m 0,0 km/h (0 Bft) W-SW 247 -6,6 C -2,8 C 0,0 km/h (0 Bft)
05.01.2015 08:00 -5,3 C 91 % 1031,6 hPa 0,0 l/m 0,0 km/h (0 Bft) W-SW 247 -6,5 C -2,8 C 0,0 km/h (0 Bft)
05.01.2015 08:05 -5,1 C 91 % 1031,6 hPa 0,0 l/m 0,0 km/h (0 Bft) W-SW 247 -6,3 C -2,8 C 0,0 km/h (0 Bft)
05.01.2015 08:10 -4,9 C 91 % 1031,6 hPa 0,0 l/m 0,0 km/h (0 Bft) W-SW 247 -6,1 C -2,8 C 0,0 km/h (0 Bft)
05.01.2015 08:15 -4,9 C 92 % 1031,6 hPa 0,0 l/m 0,0 km/h (0 Bft) W-SW 247 -6,0 C -2,8 C 0,0 km/h (0 Bft)
05.01.2015 08:20 -4,8 C 92 % 1031,8 hPa 0,0 l/m 0,0 km/h (0 Bft) W-SW 247 -5,9 C -2,8 C 0,0 km/h (0 Bft)
05.01.2015 08:25 -4,7 C 92 % 1031,8 hPa 0,0 l/m 0,0 km/h (0 Bft) W-SW 247 -5,8 C -2,8 C 0,0 km/h (0 Bft)
05.01.2015 08:30 -4,6 C 92 % 1031,8 hPa 0,0 l/m 0,0 km/h (0 Bft) W-SW 247 -5,7 C -2,8 C 0,0 km/h (0 Bft)
05.01.2015 08:35 -4,6 C 92 % 1031,8 hPa 0,0 l/m 0,0 km/h (0 Bft) W-SW 247 -5,7 C -2,8 C 0,0 km/h (0 Bft)
05.01.2015 08:40 -4,6 C 92 % 1031,6 hPa 0,0 l/m 0,0 km/h (0 Bft) W-SW 247 -5,7 C -2,8 C 0,0 km/h (0 Bft)
05.01.2015 08:45 -4,6 C 92 % 1031,6 hPa 0,0 l/m 0,0 km/h (0 Bft) W-SW 247 -5,7 C -2,8 C 0,0 km/h (0 Bft)
05.01.2015 08:50 -4,5 C 92 % 1031,6 hPa 0,0 l/m 0,0 km/h (0 Bft) W-SW 247 -5,6 C -2,8 C 0,0 km/h (0 Bft)
05.01.2015 08:55 -4,4 C 92 % 1031,6 hPa 0,0 l/m 0,0 km/h (0 Bft) W-SW 247 -5,5 C -2,8 C 0,0 km/h (0 Bft)
05.01.2015 09:00 -4,2 C 92 % 1031,5 hPa 0,0 l/m 0,0 km/h (0 Bft) W-SW 247 -5,3 C -2,8 C 0,0 km/h (0 Bft)
05.01.2015 09:05 -4,0 C 92 % 1031,5 hPa 0,0 l/m 0,0 km/h (0 Bft) W-SW 247 -5,1 C -2,8 C 0,0 km/h (0 Bft)
05.01.2015 09:10 -3,7 C 92 % 1031,5 hPa 0,0 l/m 0,0 km/h (0 Bft) W-SW 247 -4,8 C -2,8 C 0,0 km/h (0 Bft)
05.01.2015 09:15 -3,5 C 92 % 1031,5 hPa 0,0 l/m 0,0 km/h (0 Bft) W-SW 247 -4,6 C -2,8 C 0,0 km/h (0 Bft)
05.01.2015 09:20 -3,2 C 92 % 1031,5 hPa 0,0 l/m 0,0 km/h (0 Bft) W-SW 247 -4,3 C -2,8 C 0,0 km/h (0 Bft)
05.01.2015 09:25 -3,0 C 93 % 1031,5 hPa 0,0 l/m 0,0 km/h (0 Bft) W-SW 247 -4,0 C -2,8 C 0,0 km/h (0 Bft)
05.01.2015 09:30 -2,8 C 93 % 1031,5 hPa 0,0 l/m 0,0 km/h (0 Bft) W-SW 247 -3,8 C -2,8 C 0,0 km/h (0 Bft)
05.01.2015 09:35 -2,8 C 93 % 1031,5 hPa 0,0 l/m 0,0 km/h (0 Bft) W-SW 247 -3,8 C -2,8 C 0,0 km/h (0 Bft)
05.01.2015 09:40 -2,6 C 93 % 1031,8 hPa 0,0 l/m 0,0 km/h (0 Bft) W-SW 247 -3,6 C -2,8 C 0,0 km/h (0 Bft)
05.01.2015 09:45 -2,4 C 93 % 1031,8 hPa 0,0 l/m 0,0 km/h (0 Bft) W-SW 247 -3,4 C -2,8 C 0,0 km/h (0 Bft)
05.01.2015 09:50 -2,3 C 93 % 1031,8 hPa 0,0 l/m 0,0 km/h (0 Bft) W-SW 247 -3,3 C -2,8 C 0,0 km/h (0 Bft)
05.01.2015 09:55 -2,3 C 93 % 1031,8 hPa 0,0 l/m 0,0 km/h (0 Bft) W-SW 247 -3,3 C -2,8 C 0,0 km/h (0 Bft)
05.01.2015 10:00 -2,0 C 93 % 1031,6 hPa 0,0 l/m 0,0 km/h (0 Bft) W-SW 247 -3,0 C -2,8 C 0,0 km/h (0 Bft)
05.01.2015 10:05 -1,8 C 93 % 1031,6 hPa 0,0 l/m 0,0 km/h (0 Bft) W-SW 247 -2,8 C -2,8 C 0,0 km/h (0 Bft)
05.01.2015 10:10 -1,4 C 93 % 1031,6 hPa 0,0 l/m 0,0 km/h (0 Bft) W-SW 247 -2,4 C -2,8 C 0,0 km/h (0 Bft)
05.01.2015 10:15 -1,3 C 93 % 1031,6 hPa 0,0 l/m 0,0 km/h (0 Bft) W-SW 247 -2,3 C -2,8 C 0,0 km/h (0 Bft)
05.01.2015 10:20 -1,1 C 93 % 1031,2 hPa 0,0 l/m 0,0 km/h (0 Bft) W-SW 247 -2,1 C -2,8 C 0,0 km/h (0 Bft)
05.01.2015 10:23 -0,8 C 94 % 1031,2 hPa 0,0 l/m 0,0 km/h (0 Bft) W-SW 247 -1,6 C -2,8 C 0,0 km/h (0 Bft)
05.01.2015 10:25 -0,8 C 94 % 1031,2 hPa 0,0 l/m 0,0 km/h (0 Bft) W-SW 247 -1,6 C -2,8 C 0,0 km/h (0 Bft)
05.01.2015 10:30 -0,4 C 94 % 1031,2 hPa 0,0 l/m 0,0 km/h (0 Bft) W-SW 247 -1,2 C -2,8 C 0,0 km/h (0 Bft)
05.01.2015 10:35 -0,2 C 94 % 1031,2 hPa 0,0 l/m 0,0 km/h (0 Bft) W-SW 247 -1,0 C -2,8 C 0,0 km/h (0 Bft)
05.01.2015 10:40 -0,2 C 94 % 1031,3 hPa 0,0 l/m 0,0 km/h (0 Bft) W-SW 247 -1,0 C -2,8 C 0,0 km/h (0 Bft)
05.01.2015 10:45 -0,1 C 94 % 1031,3 hPa 0,0 l/m 0,0 km/h (0 Bft) W-SW 247 -0,9 C -2,8 C 0,0 km/h (0 Bft)
05.01.2015 10:50 -0,4 C 94 % 1031,3 hPa 0,0 l/m 0,0 km/h (0 Bft) W-SW 247 -1,2 C -2,8 C 0,0 km/h (0 Bft)
05.01.2015 10:55 -0,4 C 94 % 1031,3 hPa 0,0 l/m 0,0 km/h (0 Bft) W-SW 247 -1,2 C -2,8 C 0,0 km/h (0 Bft)
05.01.2015 11:00 -0,7 C 94 % 1030,6 hPa 0,0 l/m 0,0 km/h (0 Bft) W-SW 247 -1,5 C -2,8 C 0,0 km/h (0 Bft)
05.01.2015 11:05 -0,9 C 94 % 1030,6 hPa 0,0 l/m 0,0 km/h (0 Bft) W-SW 247 -1,7 C -2,8 C 0,0 km/h (0 Bft)
05.01.2015 11:10 -0,7 C 93 % 1030,6 hPa 0,0 l/m 0,0 km/h (0 Bft) W-SW 247 -1,7 C -2,8 C 0,0 km/h (0 Bft)
05.01.2015 11:15 -0,4 C 94 % 1030,6 hPa 0,0 l/m 0,0 km/h (0 Bft) W-SW 247 -1,2 C -2,8 C 0,0 km/h (0 Bft)
05.01.2015 11:20 0,3 C 94 % 1030,4 hPa 0,0 l/m 0,0 km/h (0 Bft) W-SW 247 -0,5 C -2,8 C 0,0 km/h (0 Bft)
05.01.2015 11:25 0,8 C 94 % 1030,4 hPa 0,0 l/m 0,0 km/h (0 Bft) W-SW 247 -0,1 C -2,8 C 0,0 km/h (0 Bft)
05.01.2015 11:30 1,1 C 94 % 1030,4 hPa 0,0 l/m 0,0 km/h (0 Bft) W-SW 247 0,2 C -2,8 C 0,0 km/h (0 Bft)
05.01.2015 11:35 1,1 C 94 % 1030,4 hPa 0,0 l/m 0,0 km/h (0 Bft) W-SW 247 0,2 C -2,8 C 0,0 km/h (0 Bft)
05.01.2015 11:40 1,6 C 94 % 1030,5 hPa 0,0 l/m 0,0 km/h (0 Bft) W-SW 247 0,7 C -2,8 C 0,0 km/h (0 Bft)
05.01.2015 11:45 1,6 C 93 % 1030,5 hPa 0,0 l/m 0,0 km/h (0 Bft) W-SW 247 0,6 C -2,8 C 0,0 km/h (0 Bft)
05.01.2015 11:50 1,4 C 93 % 1030,5 hPa 0,0 l/m 0,0 km/h (0 Bft) W-SW 247 0,4 C -2,8 C 0,0 km/h (0 Bft)
05.01.2015 11:55 1,4 C 93 % 1030,5 hPa 0,0 l/m 0,0 km/h (0 Bft) W-SW 247 0,4 C -2,8 C 0,0 km/h (0 Bft)
05.01.2015 12:00 1,8 C 93 % 1030,3 hPa 0,0 l/m 0,0 km/h (0 Bft) W-SW 247 0,8 C -2,8 C 0,0 km/h (0 Bft)
05.01.2015 12:05 1,3 C 93 % 1030,3 hPa 0,0 l/m 0,0 km/h (0 Bft) W-SW 247 0,3 C -2,8 C 0,0 km/h (0 Bft)
05.01.2015 12:10 0,2 C 93 % 1030,3 hPa 0,0 l/m 0,0 km/h (0 Bft) W-SW 247 -0,8 C -2,8 C 0,0 km/h (0 Bft)
05.01.2015 12:15 -0,1 C 93 % 1030,3 hPa 0,0 l/m 0,0 km/h (0 Bft) W-SW 247 -1,1 C -2,8 C 0,0 km/h (0 Bft)
05.01.2015 12:20 -0,2 C 93 % 1030,1 hPa 0,0 l/m 0,0 km/h (0 Bft) W-SW 247 -1,2 C -2,8 C 0,0 km/h (0 Bft)
05.01.2015 12:25 -0,2 C 93 % 1030,1 hPa 0,0 l/m 0,0 km/h (0 Bft) W-SW 247 -1,2 C -2,8 C 0,0 km/h (0 Bft)
05.01.2015 12:30 0,0 C 94 % 1030,1 hPa 0,0 l/m 0,0 km/h (0 Bft) W-SW 247 -0,8 C -2,8 C 0,0 km/h (0 Bft)
05.01.2015 12:35 0,2 C 94 % 1030,1 hPa 0,0 l/m 0,0 km/h (0 Bft) W-SW 247 -0,6 C -2,8 C 0,0 km/h (0 Bft)
05.01.2015 12:40 0,6 C 94 % 1030,1 hPa 0,0 l/m 0,0 km/h (0 Bft) W-SW 247 -0,3 C -2,8 C 0,0 km/h (0 Bft)
05.01.2015 12:45 0,7 C 94 % 1030,1 hPa 0,0 l/m 0,0 km/h (0 Bft) W-SW 247 -0,2 C -2,8 C 0,0 km/h (0 Bft)
05.01.2015 12:50 1,0 C 94 % 1030,1 hPa 0,0 l/m 0,0 km/h (0 Bft) W-SW 247 0,1 C -2,8 C 0,0 km/h (0 Bft)
05.01.2015 12:55 0,8 C 94 % 1030,1 hPa 0,0 l/m 0,0 km/h (0 Bft) W-SW 247 -0,1 C -2,8 C 0,0 km/h (0 Bft)
05.01.2015 13:00 0,5 C 94 % 1029,7 hPa 0,0 l/m 0,0 km/h (0 Bft) W-SW 247 -0,4 C -2,8 C 0,0 km/h (0 Bft)
05.01.2015 13:05 0,4 C 94 % 1029,7 hPa 0,0 l/m 0,0 km/h (0 Bft) W-SW 247 -0,5 C -2,8 C 0,0 km/h (0 Bft)
05.01.2015 13:10 0,5 C 94 % 1029,7 hPa 0,0 l/m 0,0 km/h (0 Bft) W-SW 247 -0,4 C -2,8 C 0,0 km/h (0 Bft)
05.01.2015 13:15 0,6 C 94 % 1029,7 hPa 0,0 l/m 0,0 km/h (0 Bft) W-SW 247 -0,3 C -2,8 C 0,0 km/h (0 Bft)
05.01.2015 13:20 0,8 C 94 % 1029,6 hPa 0,0 l/m 0,0 km/h (0 Bft) W-SW 247 -0,1 C -2,8 C 0,0 km/h (0 Bft)
05.01.2015 13:23 1,1 C 94 % 1029,6 hPa 0,0 l/m 0,0 km/h (0 Bft) W-SW 247 0,2 C -2,8 C 0,0 km/h (0 Bft)
05.01.2015 13:25 1,1 C 94 % 1029,6 hPa 0,0 l/m 0,0 km/h (0 Bft) W-SW 247 0,2 C -2,8 C 0,0 km/h (0 Bft)
05.01.2015 13:30 1,4 C 94 % 1029,6 hPa 0,0 l/m 0,0 km/h (0 Bft) W-SW 247 0,5 C -2,8 C 0,0 km/h (0 Bft)
05.01.2015 13:35 1,5 C 94 % 1029,6 hPa 0,0 l/m 0,0 km/h (0 Bft) W-SW 247 0,6 C -2,8 C 0,0 km/h (0 Bft)
05.01.2015 13:40 1,5 C 94 % 1029,4 hPa 0,0 l/m 0,0 km/h (0 Bft) W-SW 247 0,6 C -2,8 C 0,0 km/h (0 Bft)
05.01.2015 13:45 1,7 C 94 % 1029,4 hPa 0,0 l/m 0,0 km/h (0 Bft) W-SW 247 0,8 C -2,8 C 0,0 km/h (0 Bft)
05.01.2015 13:50 1,9 C 93 % 1029,4 hPa 0,0 l/m 0,0 km/h (0 Bft) W-SW 247 0,9 C -2,8 C 0,0 km/h (0 Bft)
05.01.2015 13:55 1,9 C 93 % 1029,4 hPa 0,0 l/m 0,0 km/h (0 Bft) W-SW 247 0,9 C -2,8 C 0,0 km/h (0 Bft)
05.01.2015 14:00 2,2 C 93 % 1028,9 hPa 0,0 l/m 0,0 km/h (0 Bft) W-SW 247 1,2 C -2,8 C 0,0 km/h (0 Bft)
05.01.2015 14:05 2,7 C 92 % 1028,9 hPa 0,0 l/m 0,0 km/h (0 Bft) W-SW 247 1,5 C -2,8 C 0,0 km/h (0 Bft)
05.01.2015 14:10 3,0 C 90 % 1028,9 hPa 0,0 l/m 0,0 km/h (0 Bft) W-SW 247 1,5 C -2,8 C 0,0 km/h (0 Bft)
05.01.2015 14:15 2,7 C 89 % 1028,9 hPa 0,0 l/m 0,0 km/h (0 Bft) W-SW 247 1,1 C -2,8 C 0,0 km/h (0 Bft)
05.01.2015 14:20 2,7 C 87 % 1029,0 hPa 0,0 l/m 0,0 km/h (0 Bft) W-SW 247 0,8 C -2,8 C 0,0 km/h (0 Bft)
05.01.2015 14:25 3,2 C 86 % 1029,0 hPa 0,0 l/m 0,0 km/h (0 Bft) W-SW 247 1,1 C -2,8 C 0,0 km/h (0 Bft)
05.01.2015 14:30 3,5 C 84 % 1029,0 hPa 0,0 l/m 0,0 km/h (0 Bft) W-SW 247 1,1 C -2,8 C 0,0 km/h (0 Bft)
05.01.2015 14:35 3,7 C 82 % 1029,0 hPa 0,0 l/m 0,0 km/h (0 Bft) W-SW 247 0,9 C -2,8 C 0,0 km/h (0 Bft)
05.01.2015 14:40 3,3 C 83 % 1029,3 hPa 0,0 l/m 0,0 km/h (0 Bft) W-SW 247 0,7 C -2,8 C 0,0 km/h (0 Bft)
05.01.2015 14:45 3,2 C 83 % 1029,3 hPa 0,0 l/m 0,0 km/h (0 Bft) W-SW 247 0,6 C -2,8 C 0,0 km/h (0 Bft)
05.01.2015 14:50 3,0 C 82 % 1029,3 hPa 0,0 l/m 0,0 km/h (0 Bft) W-SW 247 0,2 C -2,8 C 0,0 km/h (0 Bft)
05.01.2015 14:55 3,0 C 83 % 1029,3 hPa 0,0 l/m 0,0 km/h (0 Bft) W-SW 247 0,4 C -2,8 C 0,0 km/h (0 Bft)
05.01.2015 15:00 3,2 C 84 % 1029,2 hPa 0,0 l/m 0,0 km/h (0 Bft) W-SW 247 0,8 C -2,8 C 0,0 km/h (0 Bft)
05.01.2015 15:05 3,2 C 85 % 1029,2 hPa 0,0 l/m 0,0 km/h (0 Bft) W-SW 247 0,9 C -2,8 C 0,0 km/h (0 Bft)
05.01.2015 15:10 3,4 C 83 % 1029,2 hPa 0,0 l/m 0,0 km/h (0 Bft) W-SW 247 0,8 C -2,8 C 0,0 km/h (0 Bft)
05.01.2015 15:15 3,4 C 83 % 1029,2 hPa 0,0 l/m 0,0 km/h (0 Bft) W-SW 247 0,8 C -2,8 C 0,0 km/h (0 Bft)
05.01.2015 15:20 3,5 C 83 % 1029,0 hPa 0,0 l/m 0,0 km/h (0 Bft) W-SW 247 0,9 C -2,8 C 0,0 km/h (0 Bft)
05.01.2015 15:25 3,5 C 83 % 1029,0 hPa 0,0 l/m 0,0 km/h (0 Bft) W-SW 247 0,9 C -2,8 C 0,0 km/h (0 Bft)
05.01.2015 15:30 3,5 C 79 % 1029,0 hPa 0,0 l/m 0,0 km/h (0 Bft) W-SW 247 0,2 C -2,8 C 0,0 km/h (0 Bft)
05.01.2015 15:35 3,4 C 79 % 1029,0 hPa 0,0 l/m 0,0 km/h (0 Bft) W-SW 247 0,1 C -2,8 C 0,0 km/h (0 Bft)
05.01.2015 15:40 3,3 C 78 % 1028,8 hPa 0,0 l/m 0,0 km/h (0 Bft) W-SW 247 -0,2 C -2,8 C 0,0 km/h (0 Bft)
05.01.2015 15:45 3,2 C 78 % 1028,8 hPa 0,0 l/m 0,0 km/h (0 Bft) W-SW 247 -0,3 C -2,8 C 0,0 km/h (0 Bft)
05.01.2015 15:50 2,4 C 80 % 1028,8 hPa 0,0 l/m 0,0 km/h (0 Bft) W-SW 247 -0,7 C -2,8 C 0,0 km/h (0 Bft)
05.01.2015 15:55 2,1 C 81 % 1028,8 hPa 0,0 l/m 0,0 km/h (0 Bft) W-SW 247 -0,8 C -2,8 C 0,0 km/h (0 Bft)
05.01.2015 16:00 1,8 C 82 % 1028,6 hPa 0,0 l/m 0,0 km/h (0 Bft) W-SW 247 -0,9 C -2,8 C 0,0 km/h (0 Bft)
05.01.2015 16:05 1,7 C 83 % 1028,6 hPa 0,0 l/m 0,0 km/h (0 Bft) W-SW 247 -0,9 C -2,8 C 0,0 km/h (0 Bft)
05.01.2015 16:10 1,4 C 83 % 1028,6 hPa 0,0 l/m 0,0 km/h (0 Bft) W-SW 247 -1,2 C -2,8 C 0,0 km/h (0 Bft)
05.01.2015 16:15 1,2 C 83 % 1028,6 hPa 0,0 l/m 0,0 km/h (0 Bft) W-SW 247 -1,4 C -2,8 C 0,0 km/h (0 Bft)
05.01.2015 16:20 0,9 C 83 % 1028,6 hPa 0,0 l/m 0,0 km/h (0 Bft) W-SW 247 -1,7 C -2,8 C 0,0 km/h (0 Bft)
05.01.2015 16:23 0,7 C 83 % 1028,6 hPa 0,0 l/m 0,0 km/h (0 Bft) W-SW 247 -1,8 C -2,8 C 0,0 km/h (0 Bft)
05.01.2015 16:25 0,7 C 83 % 1028,6 hPa 0,0 l/m 0,0 km/h (0 Bft) W-SW 247 -1,8 C -2,8 C 0,0 km/h (0 Bft)
05.01.2015 16:30 0,4 C 83 % 1028,6 hPa 0,0 l/m 0,0 km/h (0 Bft) W-SW 247 -2,1 C -2,8 C 0,0 km/h (0 Bft)
05.01.2015 16:35 -0,3 C 83 % 1028,6 hPa 0,0 l/m 0,0 km/h (0 Bft) W-SW 247 -2,8 C -2,8 C 0,0 km/h (0 Bft)
05.01.2015 16:40 -0,5 C 83 % 1028,6 hPa 0,0 l/m 0,0 km/h (0 Bft) W-SW 247 -3,0 C -2,8 C 0,0 km/h (0 Bft)
05.01.2015 16:45 -0,5 C 83 % 1028,6 hPa 0,0 l/m 0,0 km/h (0 Bft) W-SW 247 -3,0 C -2,8 C 0,0 km/h (0 Bft)
05.01.2015 16:50 -0,7 C 84 % 1028,6 hPa 0,0 l/m 0,0 km/h (0 Bft) W-SW 247 -3,1 C -2,8 C 0,0 km/h (0 Bft)
05.01.2015 16:55 -1,2 C 84 % 1028,6 hPa 0,0 l/m 0,0 km/h (0 Bft) W-SW 247 -3,5 C -2,8 C 0,0 km/h (0 Bft)
05.01.2015 17:00 -1,4 C 84 % 1028,4 hPa 0,0 l/m 0,0 km/h (0 Bft) W-SW 247 -3,7 C -2,8 C 0,0 km/h (0 Bft)
05.01.2015 17:05 -1,6 C 85 % 1028,4 hPa 0,0 l/m 0,0 km/h (0 Bft) W-SW 247 -3,8 C -2,8 C 0,0 km/h (0 Bft)
05.01.2015 17:10 -1,8 C 85 % 1028,4 hPa 0,0 l/m 0,0 km/h (0 Bft) W-SW 247 -4,0 C -2,8 C 0,0 km/h (0 Bft)
05.01.2015 17:15 -1,8 C 86 % 1028,4 hPa 0,0 l/m 0,0 km/h (0 Bft) W-SW 247 -3,8 C -2,8 C 0,0 km/h (0 Bft)
05.01.2015 17:20 -2,0 C 86 % 1028,1 hPa 0,0 l/m 0,0 km/h (0 Bft) W-SW 247 -4,0 C -2,8 C 0,0 km/h (0 Bft)
05.01.2015 17:25 -2,4 C 86 % 1028,1 hPa 0,0 l/m 0,0 km/h (0 Bft) W-SW 247 -4,4 C -2,8 C 0,0 km/h (0 Bft)
05.01.2015 17:30 -1,8 C 87 % 1028,1 hPa 0,0 l/m 0,0 km/h (0 Bft) W-SW 247 -3,7 C -2,8 C 0,0 km/h (0 Bft)
05.01.2015 17:35 -1,6 C 87 % 1028,1 hPa 0,0 l/m 0,0 km/h (0 Bft) W-SW 247 -3,5 C -2,8 C 0,0 km/h (0 Bft)
05.01.2015 17:40 -2,0 C 87 % 1028,4 hPa 0,0 l/m 0,0 km/h (0 Bft) W-SW 247 -3,9 C -2,8 C 0,0 km/h (0 Bft)
05.01.2015 17:45 -2,1 C 87 % 1028,4 hPa 0,0 l/m 0,0 km/h (0 Bft) W-SW 247 -4,0 C -2,8 C 0,0 km/h (0 Bft)
05.01.2015 17:50 -2,2 C 87 % 1028,4 hPa 0,0 l/m 0,0 km/h (0 Bft) W-SW 247 -4,1 C -2,8 C 0,0 km/h (0 Bft)
05.01.2015 17:55 -2,4 C 87 % 1028,4 hPa 0,0 l/m 0,0 km/h (0 Bft) W-SW 247 -4,3 C -2,8 C 0,0 km/h (0 Bft)
05.01.2015 18:00 -2,4 C 87 % 1028,2 hPa 0,0 l/m 0,0 km/h (0 Bft) W-SW 247 -4,3 C -2,8 C 0,0 km/h (0 Bft)
05.01.2015 18:05 -3,0 C 87 % 1028,2 hPa 0,0 l/m 0,0 km/h (0 Bft) W-SW 247 -4,9 C -2,8 C 0,0 km/h (0 Bft)
05.01.2015 18:10 -3,4 C 87 % 1028,2 hPa 0,0 l/m 0,0 km/h (0 Bft) W-SW 247 -5,2 C -2,8 C 0,0 km/h (0 Bft)
05.01.2015 18:15 -3,4 C 87 % 1028,2 hPa 0,0 l/m 0,0 km/h (0 Bft) W-SW 247 -5,2 C -2,8 C 0,0 km/h (0 Bft)
05.01.2015 18:20 -2,8 C 88 % 1028,3 hPa 0,0 l/m 0,0 km/h (0 Bft) W-SW 247 -4,5 C -2,8 C 0,0 km/h (0 Bft)
05.01.2015 18:25 -2,7 C 88 % 1028,3 hPa 0,0 l/m 0,0 km/h (0 Bft) W-SW 247 -4,4 C -2,8 C 0,0 km/h (0 Bft)
05.01.2015 18:30 -3,5 C 87 % 1028,3 hPa 0,0 l/m 0,0 km/h (0 Bft) W-SW 247 -5,3 C -2,8 C 0,0 km/h (0 Bft)
05.01.2015 18:35 -3,5 C 88 % 1028,3 hPa 0,0 l/m 0,0 km/h (0 Bft) W-SW 247 -5,2 C -2,8 C 0,0 km/h (0 Bft)
05.01.2015 18:40 -3,9 C 88 % 1028,2 hPa 0,0 l/m 0,0 km/h (0 Bft) W-SW 247 -5,6 C -2,8 C 0,0 km/h (0 Bft)
05.01.2015 18:45 -4,2 C 87 % 1028,2 hPa 0,0 l/m 0,0 km/h (0 Bft) W-SW 247 -6,0 C -2,8 C 0,0 km/h (0 Bft)
05.01.2015 18:50 -4,1 C 88 % 1028,2 hPa 0,0 l/m 0,0 km/h (0 Bft) W-SW 247 -5,8 C -2,8 C 0,0 km/h (0 Bft)
05.01.2015 18:55 -4,0 C 88 % 1028,2 hPa 0,0 l/m 0,0 km/h (0 Bft) W-SW 247 -5,7 C -2,8 C 0,0 km/h (0 Bft)
05.01.2015 19:00 -3,9 C 88 % 1028,1 hPa 0,0 l/m 0,0 km/h (0 Bft) W-SW 247 -5,6 C -2,8 C 0,0 km/h (0 Bft)
05.01.2015 19:05 -4,3 C 88 % 1028,1 hPa 0,0 l/m 0,0 km/h (0 Bft) W-SW 247 -6,0 C -2,8 C 0,0 km/h (0 Bft)
05.01.2015 19:10 -4,2 C 88 % 1028,1 hPa 0,0 l/m 0,0 km/h (0 Bft) W-SW 247 -5,9 C -2,8 C 0,0 km/h (0 Bft)
05.01.2015 19:15 -4,3 C 88 % 1028,1 hPa 0,0 l/m 0,0 km/h (0 Bft) W-SW 247 -6,0 C -2,8 C 0,0 km/h (0 Bft)
05.01.2015 19:20 -4,4 C 88 % 1028,0 hPa 0,0 l/m 0,0 km/h (0 Bft) W-SW 247 -6,1 C -2,8 C 0,0 km/h (0 Bft)
05.01.2015 19:23 -4,4 C 88 % 1028,0 hPa 0,0 l/m 0,0 km/h (0 Bft) W-SW 247 -6,1 C -2,8 C 0,0 km/h (0 Bft)
05.01.2015 19:25 -4,4 C 88 % 1028,0 hPa 0,0 l/m 0,0 km/h (0 Bft) W-SW 247 -6,1 C -2,8 C 0,0 km/h (0 Bft)
05.01.2015 19:30 -4,5 C 89 % 1028,0 hPa 0,0 l/m 0,0 km/h (0 Bft) W-SW 247 -6,0 C -2,8 C 0,0 km/h (0 Bft)
05.01.2015 19:35 -4,0 C 89 % 1028,0 hPa 0,0 l/m 0,0 km/h (0 Bft) W-SW 247 -5,5 C -2,8 C 0,0 km/h (0 Bft)
05.01.2015 19:40 -4,1 C 89 % 1028,0 hPa 0,0 l/m 0,0 km/h (0 Bft) W-SW 247 -5,6 C -2,8 C 0,0 km/h (0 Bft)
05.01.2015 19:45 -4,1 C 89 % 1028,0 hPa 0,0 l/m 0,0 km/h (0 Bft) W-SW 247 -5,6 C -2,8 C 0,0 km/h (0 Bft)
05.01.2015 19:50 -4,3 C 89 % 1028,0 hPa 0,0 l/m 0,0 km/h (0 Bft) W-SW 247 -5,8 C -2,8 C 0,0 km/h (0 Bft)
05.01.2015 19:55 -4,6 C 89 % 1028,0 hPa 0,0 l/m 0,0 km/h (0 Bft) W-SW 247 -6,1 C -2,8 C 0,0 km/h (0 Bft)
05.01.2015 20:00 -4,5 C 89 % 1028,1 hPa 0,0 l/m 0,0 km/h (0 Bft) W-SW 247 -6,0 C -2,8 C 0,0 km/h (0 Bft)
05.01.2015 20:05 -4,9 C 89 % 1028,1 hPa 0,0 l/m 0,0 km/h (0 Bft) W-SW 247 -6,4 C -2,8 C 0,0 km/h (0 Bft)
05.01.2015 20:10 -5,0 C 89 % 1028,1 hPa 0,0 l/m 0,0 km/h (0 Bft) W-SW 247 -6,5 C -2,8 C 0,0 km/h (0 Bft)
05.01.2015 20:15 -4,9 C 89 % 1028,1 hPa 0,0 l/m 0,0 km/h (0 Bft) W-SW 247 -6,4 C -2,8 C 0,0 km/h (0 Bft)
05.01.2015 20:20 -5,2 C 89 % 1027,9 hPa 0,0 l/m 0,0 km/h (0 Bft) W-SW 247 -6,7 C -2,8 C 0,0 km/h (0 Bft)
05.01.2015 20:25 -5,1 C 89 % 1027,9 hPa 0,0 l/m 0,0 km/h (0 Bft) W-SW 247 -6,6 C -2,8 C 0,0 km/h (0 Bft)
05.01.2015 20:30 -5,1 C 89 % 1027,9 hPa 0,0 l/m 0,0 km/h (0 Bft) W-SW 247 -6,6 C -2,8 C 0,0 km/h (0 Bft)
05.01.2015 20:35 -5,2 C 89 % 1027,9 hPa 0,0 l/m 0,0 km/h (0 Bft) W-SW 247 -6,7 C -2,8 C 0,0 km/h (0 Bft)
05.01.2015 20:40 -4,9 C 89 % 1027,9 hPa 0,0 l/m 0,0 km/h (0 Bft) W-SW 247 -6,4 C -2,8 C 0,0 km/h (0 Bft)
05.01.2015 20:45 -4,8 C 89 % 1027,9 hPa 0,0 l/m 0,0 km/h (0 Bft) W-SW 247 -6,3 C -2,8 C 0,0 km/h (0 Bft)
05.01.2015 20:50 -5,1 C 89 % 1027,9 hPa 0,0 l/m 0,0 km/h (0 Bft) W-SW 247 -6,6 C -2,8 C 0,0 km/h (0 Bft)
05.01.2015 20:55 -5,2 C 89 % 1027,9 hPa 0,0 l/m 0,0 km/h (0 Bft) W-SW 247 -6,7 C -2,8 C 0,0 km/h (0 Bft)
05.01.2015 21:00 -5,4 C 89 % 1027,9 hPa 0,0 l/m 0,0 km/h (0 Bft) W-SW 247 -6,9 C -2,8 C 0,0 km/h (0 Bft)
05.01.2015 21:05 -5,1 C 89 % 1027,9 hPa 0,0 l/m 0,0 km/h (0 Bft) W-SW 247 -6,6 C -2,8 C 0,0 km/h (0 Bft)
05.01.2015 21:10 -5,1 C 90 % 1027,9 hPa 0,0 l/m 0,0 km/h (0 Bft) W-SW 247 -6,5 C -2,8 C 0,0 km/h (0 Bft)
05.01.2015 21:15 -5,0 C 90 % 1027,9 hPa 0,0 l/m 0,0 km/h (0 Bft) W-SW 247 -6,4 C -2,8 C 0,0 km/h (0 Bft)
05.01.2015 21:20 -4,5 C 90 % 1027,6 hPa 0,0 l/m 0,0 km/h (0 Bft) W-SW 247 -5,9 C -2,8 C 0,0 km/h (0 Bft)
05.01.2015 21:25 -4,4 C 90 % 1027,6 hPa 0,0 l/m 0,0 km/h (0 Bft) W-SW 247 -5,8 C -2,8 C 0,0 km/h (0 Bft)
05.01.2015 21:30 -4,7 C 90 % 1027,6 hPa 0,0 l/m 0,0 km/h (0 Bft) W-SW 247 -6,1 C -2,8 C 0,0 km/h (0 Bft)
05.01.2015 21:35 -4,8 C 90 % 1027,6 hPa 0,0 l/m 0,0 km/h (0 Bft) W-SW 247 -6,2 C -2,8 C 0,0 km/h (0 Bft)
05.01.2015 21:40 -4,7 C 90 % 1027,4 hPa 0,0 l/m 0,0 km/h (0 Bft) W-SW 247 -6,1 C -2,8 C 0,0 km/h (0 Bft)
05.01.2015 21:45 -4,7 C 90 % 1027,4 hPa 0,0 l/m 0,0 km/h (0 Bft) W-SW 247 -6,1 C -2,8 C 0,0 km/h (0 Bft)
05.01.2015 21:50 -4,6 C 90 % 1027,4 hPa 0,0 l/m 0,0 km/h (0 Bft) W-SW 247 -6,0 C -2,8 C 0,0 km/h (0 Bft)
05.01.2015 21:55 -4,3 C 91 % 1027,4 hPa 0,0 l/m 0,0 km/h (0 Bft) W-SW 247 -5,5 C -2,8 C 0,0 km/h (0 Bft)
05.01.2015 22:00 -4,1 C 91 % 1027,4 hPa 0,0 l/m 0,0 km/h (0 Bft) W-SW 247 -5,3 C -2,8 C 0,0 km/h (0 Bft)
05.01.2015 22:05 -4,1 C 91 % 1027,4 hPa 0,0 l/m 0,0 km/h (0 Bft) W-SW 247 -5,3 C -2,8 C 0,0 km/h (0 Bft)
05.01.2015 22:10 -4,0 C 91 % 1027,4 hPa 0,0 l/m 0,0 km/h (0 Bft) W-SW 247 -5,2 C -2,8 C 0,0 km/h (0 Bft)
05.01.2015 22:15 -3,8 C 91 % 1027,4 hPa 0,0 l/m 0,0 km/h (0 Bft) W-SW 247 -5,0 C -2,8 C 0,0 km/h (0 Bft)
05.01.2015 22:18 -3,3 C 91 % 1027,1 hPa 0,0 l/m 0,0 km/h (0 Bft) W-SW 247 -4,6 C -2,8 C 0,0 km/h (0 Bft)
05.01.2015 22:20 -3,3 C 91 % 1027,1 hPa 0,0 l/m 0,0 km/h (0 Bft) W-SW 247 -4,6 C -2,8 C 0,0 km/h (0 Bft)
05.01.2015 22:25 -3,5 C 91 % 1027,1 hPa 0,0 l/m 0,0 km/h (0 Bft) W-SW 247 -4,8 C -2,8 C 0,0 km/h (0 Bft)
05.01.2015 22:30 -3,3 C 91 % 1027,1 hPa 0,0 l/m 0,0 km/h (0 Bft) W-SW 247 -4,6 C -2,8 C 0,0 km/h (0 Bft)
05.01.2015 22:35 -3,2 C 91 % 1027,1 hPa 0,0 l/m 0,0 km/h (0 Bft) W-SW 247 -4,5 C -2,8 C 0,0 km/h (0 Bft)
05.01.2015 22:40 -2,8 C 91 % 1026,9 hPa 0,0 l/m 0,0 km/h (0 Bft) W-SW 247 -4,1 C -2,8 C 0,0 km/h (0 Bft)
05.01.2015 22:45 -2,6 C 92 % 1026,9 hPa 0,0 l/m 0,0 km/h (0 Bft) W-SW 247 -3,7 C -2,8 C 0,0 km/h (0 Bft)
05.01.2015 22:50 -2,5 C 92 % 1026,9 hPa 0,0 l/m 0,0 km/h (0 Bft) W-SW 247 -3,6 C -2,8 C 0,0 km/h (0 Bft)
05.01.2015 22:55 -2,6 C 91 % 1026,9 hPa 0,0 l/m 0,0 km/h (0 Bft) W-SW 247 -3,9 C -2,8 C 0,0 km/h (0 Bft)
05.01.2015 23:00 -2,4 C 92 % 1026,9 hPa 0,0 l/m 0,0 km/h (0 Bft) W-SW 247 -3,5 C -2,8 C 0,0 km/h (0 Bft)
05.01.2015 23:05 -2,6 C 91 % 1026,9 hPa 0,0 l/m 0,0 km/h (0 Bft) W-SW 247 -3,9 C -2,8 C 0,0 km/h (0 Bft)
05.01.2015 23:10 -2,7 C 91 % 1026,9 hPa 0,0 l/m 0,0 km/h (0 Bft) W-SW 247 -4,0 C -2,8 C 0,0 km/h (0 Bft)
05.01.2015 23:15 -2,6 C 91 % 1026,9 hPa 0,0 l/m 0,0 km/h (0 Bft) W-SW 247 -3,9 C -2,8 C 0,0 km/h (0 Bft)
05.01.2015 23:20 -2,6 C 91 % 1026,8 hPa 0,0 l/m 0,0 km/h (0 Bft) W-SW 247 -3,9 C -2,8 C 0,0 km/h (0 Bft)
05.01.2015 23:25 -2,7 C 90 % 1026,8 hPa 0,0 l/m 0,0 km/h (0 Bft) W-SW 247 -4,1 C -2,8 C 0,0 km/h (0 Bft)
05.01.2015 23:30 -2,5 C 90 % 1026,8 hPa 0,0 l/m 0,0 km/h (0 Bft) W-SW 247 -3,9 C -2,8 C 0,0 km/h (0 Bft)
05.01.2015 23:35 -2,5 C 90 % 1026,8 hPa 0,0 l/m 0,0 km/h (0 Bft) W-SW 247 -3,9 C -2,8 C 0,0 km/h (0 Bft)
05.01.2015 23:40 -2,5 C 90 % 1026,6 hPa 0,0 l/m 0,0 km/h (0 Bft) W-SW 247 -3,9 C -2,8 C 0,0 km/h (0 Bft)
05.01.2015 23:45 -2,4 C 90 % 1026,6 hPa 0,0 l/m 0,0 km/h (0 Bft) W-SW 247 -3,8 C -2,8 C 0,0 km/h (0 Bft)
05.01.2015 23:50 -2,3 C 89 % 1026,6 hPa 0,0 l/m 0,0 km/h (0 Bft) W-SW 247 -3,9 C -2,8 C 0,0 km/h (0 Bft)
05.01.2015 23:55 -2,4 C 89 % 1026,6 hPa 0,0 l/m 0,0 km/h (0 Bft) W-SW 247 -4,0 C -2,8 C 0,0 km/h (0 Bft)
_ Min-Zeit 07:45 15:45 23:55 - 23:55 - - 21:00 23:55 23:55
Minimum _ -5,6 C 78 % 1026,6 hPa - 0,0 km/h (0 Bft) - - -6,9 C -2,8 C 0,0 km/h (0 Bft)
_ Max-Zeit 14:35 02:10 03:15 23:55 23:55 - - 14:05 23:55 23:55
Maximum _ 3,7 C 96 % 1033,1 hPa 0,0 l/m 0,0 km/h
W-SW (0 Bft)
- - 1,5 C -2,8 C 0,0 km/h
W-SW (0 Bft)
Durchschnitt _ -2,0 C 91 % 1030,2 hPa #0,0 l/m 0,0 km/h (0 Bft) - - - -3,2 C -2,8 C 0,0 km/h (0 Bft)